Accueil
METAR-TAF:

METAR-TAF

Aéroports :

Pittsburg, Kansas, États-Unis

latitude: 37-26-58N, longitude: 094-43-52W, altitude: 290 m

Observation

Le bulletin a été fait il y a 23 minutes, à 18:55 UTC
Vent calme
Température 34°C
Humidité 53%
Pression 1016 hPa
Visibilité: 16.1 km
Ciel clair

METAR: KPTS 151855Z AUTO 00000KT 10SM CLR 34/23 A2999 RMK AO2 T03370229

Heure: 14:18 (19:18 UTC)


TAF: absent

Observations et prévisions météorologiques de plus de 4000 aéroports (messages METAR et TAF).

Les stations disponibles sont représentées par des disques jaunes et rouges sur la carte.

Passer la souris dessus pour voir le nom de la station.

Cliquer dessus pour voir les observations et prévisions météorologiques.

Pour changer de carte: cliquez sur les boutons verts avec une croix noire pour zoomer, sur le bouton vert avec un tiret pour effectuer un zoom arrière, ou sur les flèches vertes pour les cartes adjacentes.


METAR-TAF: